Radiation Dose at Monitoring Post of Fukushima Daini Nuclear Power Station
Date,Time,MP-1(microSv/h),MP-2(microSv/h),MP-3(microSv/h),MP-4(microSv/h),MP-5(microSv/h),MP-6(microSv/h),MP-7(microSv/h),Wind Direction,Wind Velocity(m/s),Rain
2014/03/06,00:00,0.7,0.5,0.8,0.7,0.7,0.3,0.3,north,6.2,No
2014/03/06,00:10,0.7,0.5,0.8,0.7,0.7,0.3,0.3,north-northwest,6.1,No
2014/03/06,00:20,0.7,0.5,0.8,0.7,0.7,0.3,0.3,north-northwest,8.1,No
2014/03/06,00:30,0.7,0.5,0.8,0.7,0.7,0.3,0.3,north-northwest,7.4,No
2014/03/06,00:40,0.7,0.5,0.8,0.7,0.7,0.3,0.3,north-northwest,7.5,No
2014/03/06,00:50,0.7,0.5,0.8,0.7,0.7,0.3,0.3,north-northwest,7.0,No
2014/03/06,01:00,0.7,0.5,0.8,0.7,0.7,0.3,0.3,north-northwest,8.8,No
2014/03/06,01:10,0.7,0.5,0.8,0.7,0.7,0.3,0.3,north-northwest,8.5,No
2014/03/06,01:20,0.7,0.5,0.8,0.7,0.7,0.3,0.3,north-northwest,10.1,No
2014/03/06,01:30,0.7,0.5,0.8,0.7,0.7,0.3,0.3,north-northwest,10.6,No
2014/03/06,01:40,0.7,0.5,0.8,0.7,0.7,0.3,0.3,north-northwest,10.4,No
2014/03/06,01:50,0.7,0.5,0.8,0.7,0.7,0.3,0.3,northwest,9.8,No
2014/03/06,02:00,0.7,0.5,0.8,0.7,0.7,0.3,0.3,north-northwest,10.7,No
2014/03/06,02:10,0.7,0.5,0.8,0.7,0.7,0.3,0.3,northwest,12.1,No
2014/03/06,02:20,0.7,0.5,0.8,0.7,0.7,0.3,0.3,north-northwest,12.7,No
2014/03/06,02:30,0.7,0.5,0.8,0.7,0.7,0.3,0.3,northwest,9.7,No
2014/03/06,02:40,0.7,0.5,0.8,0.7,0.7,0.3,0.3,north-northwest,11.6,No
2014/03/06,02:50,0.7,0.5,0.8,0.7,0.7,0.3,0.3,north-northwest,11.6,No
2014/03/06,03:00,0.7,0.5,0.8,0.7,0.7,0.3,0.3,north-northwest,10.5,No
2014/03/06,03:10,0.7,0.5,0.8,0.7,0.7,0.3,0.3,north-northwest,6.6,No
2014/03/06,03:20,0.7,0.5,0.8,0.7,0.7,0.3,0.3,north-northwest,6.7,No
2014/03/06,03:30,0.7,0.5,0.8,0.7,0.7,0.3,0.3,north-northwest,7.8,No
2014/03/06,03:40,0.7,0.5,0.8,0.7,0.7,0.3,0.3,north-northwest,8.1,No
2014/03/06,03:50,0.7,0.5,0.8,0.7,0.7,0.3,0.3,north-northwest,8.4,No
2014/03/06,04:00,0.7,0.5,0.8,0.7,0.7,0.3,0.3,north-northwest,7.2,No
2014/03/06,04:10,0.7,0.5,0.8,0.7,0.7,0.3,0.3,north-northwest,8.9,No
2014/03/06,04:20,0.7,0.5,0.8,0.7,0.7,0.3,0.3,north,9.8,No
2014/03/06,04:30,0.7,0.5,0.8,0.7,0.7,0.3,0.3,north,10.4,No
2014/03/06,04:40,0.7,0.5,0.8,0.7,0.7,0.3,0.3,north,8.3,No
2014/03/06,04:50,0.7,0.5,0.8,0.7,0.7,0.3,0.3,north-northwest,4.9,No
2014/03/06,05:00,0.7,0.5,0.8,0.7,0.7,0.3,0.3,north,6.3,No
2014/03/06,05:10,0.7,0.5,0.8,0.7,0.7,0.3,0.3,north,9.6,No
2014/03/06,05:20,0.7,0.5,0.8,0.7,0.7,0.3,0.3,north,8.8,No
2014/03/06,05:30,0.7,0.5,0.8,0.7,0.7,0.3,0.3,north,7.5,No
2014/03/06,05:40,0.7,0.5,0.8,0.7,0.7,0.3,0.3,north-northwest,11.0,No
2014/03/06,05:50,0.7,0.5,0.8,0.7,0.7,0.3,0.3,north,10.0,No
2014/03/06,06:00,0.7,0.5,0.8,0.7,0.7,0.3,0.3,north-northwest,7.5,No
2014/03/06,06:10,0.7,0.5,0.8,0.7,0.7,0.3,0.3,north,8.9,No
2014/03/06,06:20,0.7,0.5,0.8,0.7,0.7,0.3,0.3,north,7.8,No
2014/03/06,06:30,0.7,0.5,0.8,0.7,0.7,0.3,0.3,north,5.0,No
2014/03/06,06:40,0.7,0.5,0.8,0.7,0.7,0.3,0.3,north-northwest,5.6,No
2014/03/06,06:50,0.7,0.5,0.8,0.7,0.7,0.3,0.3,north,3.0,No
2014/03/06,07:00,0.7,0.5,0.8,0.7,0.7,0.3,0.3,north,3.3,No
2014/03/06,07:10,0.7,0.5,0.8,0.7,0.7,0.3,0.3,north,5.7,No
2014/03/06,07:20,0.7,0.5,0.8,0.7,0.7,0.3,0.3,north,6.3,No
2014/03/06,07:30,0.7,0.5,0.8,0.7,0.7,0.3,0.3,north,5.3,No
2014/03/06,07:40,0.7,0.5,0.8,0.7,0.7,0.3,0.3,north,4.9,No
2014/03/06,07:50,0.7,0.5,0.8,0.7,0.7,0.3,0.3,north-northwest,6.2,No
2014/03/06,08:00,0.7,0.5,0.8,0.7,0.7,0.3,0.3,north-northwest,6.0,No
2014/03/06,08:10,0.7,0.5,0.8,0.7,0.7,0.3,0.3,north-northwest,4.2,No
2014/03/06,08:20,0.7,0.5,0.8,0.7,0.7,0.3,0.3,north-northwest,1.8,No
2014/03/06,08:30,0.7,0.5,0.8,0.7,0.7,0.3,0.3,northwest,2.5,No
2014/03/06,08:40,0.7,0.5,0.8,0.7,0.7,0.3,0.3,north,1.4,No
2014/03/06,08:50,0.7,0.5,0.8,0.7,0.7,0.3,0.3,north-northwest,2.5,No
2014/03/06,09:00,0.7,0.5,0.8,0.7,0.7,0.3,0.3,north-northwest,1.2,No
2014/03/06,09:10,0.7,0.5,0.8,0.7,0.7,0.3,0.3,west-northwest,0.7,No
2014/03/06,09:20,0.7,0.5,0.8,0.7,0.7,0.3,0.3,southwest,0.7,No
2014/03/06,09:30,0.7,0.5,0.8,0.7,0.7,0.3,0.3,west,1.0,No
2014/03/06,09:40,0.7,0.5,0.8,0.7,0.7,0.3,0.3,northwest,1.3,No
2014/03/06,09:50,0.7,0.5,0.8,0.7,0.7,0.3,0.3,north,6.3,No
2014/03/06,10:00,0.7,0.5,0.8,0.7,0.7,0.3,0.3,north,2.8,No
2014/03/06,10:10,0.7,0.5,0.8,0.7,0.7,0.3,0.3,-,CALM,No
2014/03/06,10:20,0.7,0.5,0.8,0.7,0.7,0.3,0.3,-,CALM,No
2014/03/06,10:30,0.7,0.5,0.8,0.7,0.7,0.3,0.3,-,CALM,No
2014/03/06,10:40,0.7,0.5,0.8,0.7,0.7,0.3,0.3,-,CALM,No
2014/03/06,10:50,0.7,0.5,0.8,0.7,0.7,0.3,0.3,-,CALM,No
2014/03/06,11:00,0.7,0.5,0.8,0.7,0.7,0.3,0.3,-,CALM,No
2014/03/06,11:10,0.7,0.5,0.8,0.7,0.7,0.3,0.3,-,CALM,No
2014/03/06,11:20,0.7,0.5,0.8,0.7,0.7,0.3,0.3,-,CALM,No
2014/03/06,11:30,0.7,0.5,0.8,0.7,0.7,0.3,0.3,-,CALM,No
2014/03/06,11:40,0.7,0.5,0.8,0.7,0.7,0.3,0.3,-,CALM,No
2014/03/06,11:50,0.7,0.5,0.8,0.7,0.7,0.3,0.3,-,CALM,No
2014/03/06,12:00,0.7,0.5,0.8,0.7,0.7,0.3,0.3,-,CALM,No
2014/03/06,12:10,0.7,0.5,0.8,0.7,0.7,0.3,0.3,-,CALM,No
2014/03/06,12:20,0.7,0.5,0.8,0.7,0.7,0.3,0.3,-,CALM,No
2014/03/06,12:30,0.7,0.5,0.8,0.7,0.7,0.3,0.3,-,CALM,No
2014/03/06,12:40,0.7,0.5,0.8,0.7,0.7,0.3,0.3,-,CALM,No
2014/03/06,12:50,0.8,0.5,0.8,0.7,0.7,0.3,0.3,-,CALM,No
2014/03/06,13:00,0.7,0.5,0.8,0.7,0.7,0.3,0.3,-,CALM,No
2014/03/06,13:10,0.8,0.5,0.8,0.7,0.7,0.3,0.3,-,CALM,No
2014/03/06,13:20,0.8,0.5,0.8,0.7,0.7,0.3,0.3,-,CALM,No
2014/03/06,13:30,0.8,0.5,0.8,0.7,0.7,0.3,0.3,-,CALM,No
2014/03/06,13:40,0.8,0.5,0.8,0.7,0.7,0.3,0.3,-,CALM,No
2014/03/06,13:50,0.8,0.5,0.8,0.7,0.7,0.3,0.3,-,CALM,Yes
2014/03/06,14:00,0.8,0.5,0.8,0.7,0.7,0.3,0.3,-,CALM,No
2014/03/06,14:10,0.8,0.5,0.8,0.7,0.7,0.3,0.3,-,CALM,No
2014/03/06,14:20,0.7,0.5,0.8,0.7,0.7,0.3,0.3,-,CALM,No
2014/03/06,14:30,0.7,0.5,0.8,0.7,0.7,0.3,0.3,-,CALM,Yes
2014/03/06,14:40,0.8,0.5,0.8,0.7,0.7,0.3,0.3,-,CALM,Yes
2014/03/06,14:50,0.8,0.5,0.8,0.7,0.7,0.3,0.3,-,CALM,No
2014/03/06,15:00,0.7,0.5,0.8,0.7,0.7,0.3,0.3,-,CALM,No
2014/03/06,15:10,0.7,0.5,0.8,0.7,0.7,0.3,0.3,north-northwest,5.8,No
2014/03/06,15:20,0.7,0.5,0.8,0.7,0.7,0.3,0.3,north-northwest,5.0,No
2014/03/06,15:30,0.8,0.5,0.8,0.7,0.7,0.3,0.3,northwest,4.7,No
2014/03/06,15:40,0.7,0.5,0.8,0.7,0.7,0.3,0.3,north-northwest,6.1,No
2014/03/06,15:50,0.7,0.5,0.8,0.7,0.7,0.3,0.3,northwest,4.5,No
2014/03/06,16:00,0.8,0.5,0.8,0.7,0.7,0.3,0.3,northwest,3.6,No
2014/03/06,16:10,0.7,0.5,0.8,0.7,0.7,0.3,0.3,northwest,2.1,No
2014/03/06,16:20,0.7,0.5,0.8,0.7,0.7,0.3,0.3,west-northwest,2.2,No
2014/03/06,16:30,0.7,0.5,0.8,0.7,0.7,0.3,0.3,west-northwest,4.2,No
2014/03/06,16:40,0.8,0.5,0.8,0.7,0.7,0.3,0.3,west,4.8,No
2014/03/06,16:50,0.7,0.5,0.8,0.7,0.7,0.3,0.3,west,6.0,No
2014/03/06,17:00,0.7,0.5,0.8,0.7,0.7,0.3,0.3,west,1.4,No
2014/03/06,17:10,0.7,0.5,0.8,0.7,0.7,0.3,0.3,-,CALM,No
2014/03/06,17:20,0.8,0.5,0.8,0.7,0.7,0.3,0.3,-,CALM,No
2014/03/06,17:30,0.7,0.5,0.8,0.7,0.7,0.3,0.3,-,CALM,No
2014/03/06,17:40,0.8,0.5,0.8,0.7,0.7,0.3,0.3,west,0.5,No
2014/03/06,17:50,0.8,0.5,0.8,0.7,0.7,0.3,0.3,north,0.6,No
2014/03/06,18:00,0.7,0.5,0.8,0.7,0.7,0.3,0.3,-,CALM,No
2014/03/06,18:10,0.7,0.5,0.8,0.7,0.7,0.3,0.3,south-southwest,1.0,No
2014/03/06,18:20,0.7,0.5,0.8,0.7,0.7,0.3,0.3,south,1.3,No
2014/03/06,18:30,0.7,0.5,0.8,0.7,0.7,0.3,0.3,south-southwest,1.8,No
2014/03/06,18:40,0.7,0.5,0.8,0.7,0.7,0.3,0.3,southwest,1.7,No
2014/03/06,18:50,0.8,0.5,0.8,0.7,0.7,0.3,0.3,south-southwest,3.0,No
2014/03/06,19:00,0.7,0.5,0.8,0.7,0.7,0.3,0.3,south-southwest,3.4,No
2014/03/06,19:10,0.7,0.5,0.8,0.7,0.7,0.3,0.3,south-southwest,2.5,No
2014/03/06,19:20,0.7,0.5,0.8,0.7,0.7,0.3,0.3,south-southwest,3.1,No
2014/03/06,19:30,0.7,0.5,0.8,0.7,0.7,0.3,0.3,south-southwest,4.3,No
2014/03/06,19:40,0.7,0.5,0.8,0.7,0.7,0.3,0.3,south-southwest,4.2,No
2014/03/06,19:50,0.7,0.5,0.8,0.7,0.7,0.3,0.3,southwest,5.1,No
2014/03/06,20:00,0.7,0.5,0.8,0.7,0.7,0.3,0.3,southwest,5.4,No
2014/03/06,20:10,0.7,0.5,0.8,0.7,0.7,0.3,0.3,southwest,2.9,No
2014/03/06,20:20,0.7,0.5,0.8,0.7,0.7,0.3,0.3,south-southwest,4.1,No
2014/03/06,20:30,0.7,0.5,0.8,0.7,0.7,0.3,0.3,southwest,4.3,No
2014/03/06,20:40,0.8,0.5,0.8,0.7,0.7,0.3,0.3,south-southwest,4.6,No
2014/03/06,20:50,0.7,0.5,0.8,0.7,0.7,0.3,0.3,south-southwest,3.8,No
2014/03/06,21:00,0.7,0.5,0.8,0.7,0.7,0.3,0.3,southwest,2.9,No
2014/03/06,21:10,0.7,0.5,0.8,0.7,0.7,0.3,0.3,west-southwest,2.4,No
2014/03/06,21:20,0.7,0.5,0.8,0.7,0.7,0.3,0.3,west,4.5,No
2014/03/06,21:30,0.8,0.5,0.8,0.7,0.7,0.3,0.3,west-southwest,3.4,No
2014/03/06,21:40,0.7,0.5,0.8,0.7,0.7,0.3,0.3,west-southwest,5.8,No
2014/03/06,21:50,0.8,0.5,0.8,0.7,0.7,0.3,0.3,west,4.8,No
2014/03/06,22:00,0.7,0.5,0.8,0.7,0.7,0.3,0.3,west,6.5,No
2014/03/06,22:10,0.7,0.5,0.8,0.7,0.7,0.3,0.3,west-northwest,6.1,No
2014/03/06,22:20,0.7,0.5,0.8,0.7,0.7,0.3,0.3,west-northwest,6.1,No
2014/03/06,22:30,0.7,0.5,0.8,0.7,0.7,0.3,0.3,west-northwest,8.7,No
2014/03/06,22:40,0.7,0.5,0.8,0.7,0.7,0.3,0.3,west,5.9,No
2014/03/06,22:50,0.7,0.5,0.8,0.7,0.7,0.3,0.3,southwest,1.2,No
2014/03/06,23:00,0.7,0.5,0.8,0.7,0.7,0.3,0.3,west-northwest,1.9,No
2014/03/06,23:10,0.8,0.5,0.8,0.7,0.7,0.3,0.3,west-southwest,1.8,No
2014/03/06,23:20,0.7,0.5,0.8,0.7,0.7,0.3,0.3,west-southwest,2.2,No
2014/03/06,23:30,0.7,0.5,0.8,0.7,0.7,0.3,0.3,west-southwest,2.9,No
2014/03/06,23:40,0.7,0.5,0.8,0.7,0.7,0.3,0.3,south-southwest,1.2,No
2014/03/06,23:50,0.7,0.5,0.8,0.7,0.7,0.3,0.3,west-southwest,1.4,No
